Regional Weather Roundup
Issued by NWS

Home | Current Version | Previous Version | Text Only | Print | Product List | Glossary Off
Versions: 1 2 3 4 5 6 7 8 9 10 11 12 13 14 15 16 17 18 19 20 21 22 23 24 25 26 27 28 29 30 31 32 33 34 35 36 37 38 39 40 41 42 43 44 45 46 47 48 49 50

000
ASUS43 KOAX 012202
RWRNE

WEATHER ROUNDUP FOR NEBRASKA
NATIONAL WEATHER SERVICE OMAHA NE
500 PM CDT WED OCT 01 2014

NOTES: SATELLITE DATA IS BEING USED TO AUGMENT CLOUD COVER ABOVE
       12000 FEET.
       "FAIR" INDICATES FEW OR NO CLOUDS BELOW 12,000 FEET WITH NO
       SIGNIFICANT WEATHER AND/OR OBSTRUCTIONS TO VISIBILITY.

  * THESE STATIONS DO NOT REPORT WEATHER SUCH AS RAIN...SNOW OR FOG.

NEZ001>004-019>022-054>056-012300-
NEBRASKA PANHANDLE

CITY           SKY/WX    TMP DP  RH WIND       PRES   REMARKS
SCOTTSBLUFF    CLOUDY    59  45  59 NW17      29.88R
ALLIANCE       CLOUDY    65  45  48 N10       29.84R
CHADRON        CLOUDY    59  45  59 NW9       29.88R
KIMBALL        CLOUDY    55  38  53 N10       29.87R
SIDNEY         PTSUNNY   66  41  40 N10       29.85S
$$

NEZ057>060-069>072-079>082-012300-
SOUTHWEST NEBRASKA

CITY           SKY/WX    TMP DP  RH WIND       PRES   REMARKS
NORTH PLATTE   MOSUNNY   74  44  34 CALM      29.76F
IMPERIAL       MOSUNNY   73  41  31 E3        29.78S
LEXINGTON      MOSUNNY   74  50  42 CALM      29.75S
MCCOOK         SUNNY     77  43  29 VRB3      29.75S
OGALLALA       MOSUNNY   73  44  36 CALM      29.79S
$$

NEZ005>010-023>029-035>040-094-012300-
NORTH CENTRAL NEBRASKA

CITY           SKY/WX    TMP DP  RH WIND       PRES   REMARKS
VALENTINE      MOSUNNY   72  45  37 VRB7      29.81S
AINSWORTH      MOSUNNY   67  47  48 N8        29.81R
BROKEN BOW     MOSUNNY   75  49  39 E6        29.76S
O`NEILL        MOSUNNY   73  53  49 N10       29.78R
ORD            MOSUNNY   75  49  39 N5        29.74S
$$

NEZ041-046>049-061>064-073>077-083>087-012300-
SOUTH CENTRAL NEBRASKA

CITY           SKY/WX    TMP DP  RH WIND       PRES   REMARKS
GRAND ISLAND   SUNNY     78  53  41 NE5       29.74S
AURORA         MOSUNNY   76  55  46 NE3       29.73R
HASTINGS       MOSUNNY   78  52  40 NE9       29.73S
HEBRON         MOSUNNY   78  58  50 E8        29.71S
HOLDREGE       MOSUNNY   77  46  33 CALM      29.73S
KEARNEY *      MOSUNNY   75  55  50 NE6       29.75S
YORK           MOSUNNY   77  59  53 E6        29.73R
$$

NEZ011>018-030>034-042>045-012300-
NORTHEAST NEBRASKA

CITY           SKY/WX    TMP DP  RH WIND       PRES   REMARKS
NORFOLK        PTSUNNY   76  55  48 N13       29.74R
ALBION         MOSUNNY   74  51  43 N6        29.75R
BLAIR          PTSUNNY   74  64  69 E5        29.72S
COLUMBUS *     PTSUNNY   79  54  41 SW3       29.74R
FREMONT        PTSUNNY   77  59  53 N3        29.73S
TEKAMAH        PTSUNNY   77  61  57 CALM      29.72S
WAYNE          PTSUNNY   76  56  48 NW6       29.73S
$$

NEZ050>053-065>068-078-088>093-012300-
SOUTHEAST NEBRASKA

CITY           SKY/WX    TMP DP  RH WIND       PRES   REMARKS
LINCOLN        MOSUNNY   76  62  62 E6        29.73S
OMAHA EPPLEY   PTSUNNY   74  62  66 VRB3      29.73R
BEATRICE       MOSUNNY   79  61  54 NE6       29.71S
FALLS CITY     PTSUNNY   81  65  58 VRB3      29.69F
NEBRASKA CITY  MOSUNNY   76  61  59 N3        29.72S
PLATTSMOUTH      N/A     74  62  64 SE5       29.73S
$$

NEZ044-045-051>053-067-012300-
OMAHA AREA

CITY           SKY/WX    TMP DP  RH WIND       PRES   REMARKS
OMAHA EPPLEY   PTSUNNY   74  62  66 VRB3      29.73R
BLAIR          PTSUNNY   74  64  69 E5        29.72S
FREMONT        PTSUNNY   77  59  53 N3        29.73S
MILLARD        PTSUNNY   75  64  68 SE5       29.72R
OFFUTT AFB     PTSUNNY   76  66  70 CALM      29.72S
PLATTSMOUTH      N/A     74  62  64 SE5       29.73S
WAHOO          FAIR      77  57  48 CALM      29.72R
$$



USA.gov is the U.S. government's official web portal to all federal, state and local government web resources and services.